Location: City of Moscow
(46.7306°N, 116.9989°W)
Time: 14:13:26
(UTC+00:00)

CUBEBUG 2 - Pass Details

Date: 26 April 2026
Orbit: 546 x 628 km, 97.9° (Epoch: 15 May)

Event Time Altitude Azimuth Distance (km) Brightness Sun altitude
Rises 11:55:42 0° 353° (N) 2,827 ? -7.8°
Reaches altitude 10° 11:59:54 10° 311° (NW) 1,894 ? -7.2°
Maximum altitude 12:00:29 10° 303° (WNW) 1,872 ? -7.1°
Drops below altitude 10° 12:01:04 10° 295° (WNW) 1,885 ? -7.0°
Enters shadow 12:03:15 - 268° (W) 2,209 ? -6.7°
